Welcome to Des Moines Iowa Weather. I am an independent private personal weather station on the Northwest Side of Des Moines, Iowa. Just East of Windsor Heights and just West of Glendale . This site is also mobile friendly.

There are no active watches, warnings or advisories


Visit our other weather sites:

Historical Data

Weather Station Setup



Weather Underground History page Text

Daily Summary for March 25, 2017 Units:  English    Metric   Both
« Previous Day
Next Day »
Daily Weekly Monthly Yearly Custom
  High: Low: Average:
Temperature: 42.6 °F 38.7 °F 41.1 °F
Dew Point: 41.0 °F 38.0 °F 40 °F
Humidity: 97 % 94 % 96 %
Wind Speed: 9.0 mph 0.0 mph 2.9 mph
Wind Gust: 22.0 mph - -
Wind:- - ENE
Pressure: 29.96 in 29.90 in -
Precipitation: 0.65 in    
Historical Graphs
 
 
Tabular Data for March 25, 2017
Time Temperature Dew Point Pressure Wind Wind Speed Wind Gust Humidity Rainfall Rate (Hourly)
00:12 42.6 °F 41.0 °F 29.95 in NNE 4.0 mph 12.0 mph 95 % 0.00 in
00:27 42.6 °F 41.0 °F 29.95 in East 7.0 mph 12.0 mph 95 % 0.00 in
00:42 42.5 °F 41.0 °F 29.96 in NE 2.0 mph 9.0 mph 95 % 0.00 in
00:57 42.5 °F 41.0 °F 29.95 in NE 5.0 mph 9.0 mph 95 % 0.00 in
01:12 42.3 °F 41.0 °F 29.95 in NE 3.0 mph 11.0 mph 95 % 0.00 in
01:27 42.2 °F 41.0 °F 29.94 in ENE 7.0 mph 13.0 mph 95 % 0.00 in
01:42 42.0 °F 41.0 °F 29.93 in East 4.0 mph 13.0 mph 95 % 0.00 in
01:57 41.9 °F 41.0 °F 29.93 in East 4.0 mph 13.0 mph 95 % 0.00 in
02:13 41.8 °F 41.0 °F 29.93 in Calm   11.0 mph 96 % 0.00 in
02:27 41.9 °F 41.0 °F 29.92 in NE 1.0 mph 9.0 mph 96 % 0.00 in
02:43 41.6 °F 40.0 °F 29.91 in ENE 2.0 mph 22.0 mph 95 % 0.00 in
02:58 41.5 °F 40.0 °F 29.91 in ENE 4.0 mph 12.0 mph 95 % 0.00 in
03:13 41.5 °F 40.0 °F 29.91 in East 7.0 mph 11.0 mph 95 % 0.00 in
03:28 41.4 °F 40.0 °F 29.91 in NE 4.0 mph 17.0 mph 95 % 0.00 in
03:43 41.4 °F 40.0 °F 29.91 in NE 4.0 mph 12.0 mph 95 % 0.00 in
03:58 41.3 °F 40.0 °F 29.91 in East 2.0 mph 14.0 mph 96 % 0.00 in
04:13 41.3 °F 40.0 °F 29.91 in East 4.0 mph 14.0 mph 96 % 0.00 in
04:28 41.3 °F 40.0 °F 29.90 in ENE 2.0 mph 14.0 mph 96 % 0.00 in
04:43 41.3 °F 40.0 °F 29.90 in NNE 4.0 mph 15.0 mph 96 % 0.00 in
04:58 41.3 °F 40.0 °F 29.90 in ESE 1.0 mph 13.0 mph 96 % 0.00 in
05:13 41.3 °F 40.0 °F 29.90 in East 7.0 mph 13.0 mph 96 % 0.00 in
05:28 41.1 °F 40.0 °F 29.90 in ENE 1.0 mph 13.0 mph 97 % 0.00 in
05:43 41.1 °F 40.0 °F 29.91 in East 6.0 mph 10.0 mph 97 % 0.00 in
05:58 41.1 °F 40.0 °F 29.92 in ESE 4.0 mph 9.0 mph 97 % 0.00 in
06:13 41.0 °F 40.0 °F 29.93 in NE 4.0 mph 11.0 mph 97 % 0.01 in
06:28 41.0 °F 40.0 °F 29.94 in Calm   11.0 mph 97 % 0.04 in
06:43 40.8 °F 40.0 °F 29.94 in ENE 4.0 mph 8.0 mph 97 % 0.06 in
06:58 40.6 °F 40.0 °F 29.95 in East 1.0 mph 9.0 mph 97 % 0.07 in
07:13 40.4 °F 40.0 °F 29.95 in Calm   9.0 mph 97 % 0.09 in
07:43 40.0 °F 39.0 °F 29.95 in NE 5.0 mph 9.0 mph 97 % 0.09 in
07:58 39.9 °F 39.0 °F 29.95 in NNE 6.0 mph 11.0 mph 97 % 0.08 in
08:13 39.6 °F 39.0 °F 29.95 in ENE 9.0 mph 13.0 mph 97 % 0.06 in
08:28 39.4 °F 39.0 °F 29.96 in East 4.0 mph 12.0 mph 97 % 0.05 in
08:43 39.2 °F 39.0 °F 29.96 in NNE 5.0 mph 12.0 mph 97 % 0.05 in
08:58 39.2 °F 39.0 °F 29.96 in Calm   11.0 mph 97 % 0.07 in
09:13 39.0 °F 38.0 °F 29.96 in NE 3.0 mph 15.0 mph 97 % 0.11 in
09:28 38.8 °F 38.0 °F 29.96 in East 5.0 mph 11.0 mph 97 % 0.14 in
09:43 38.8 °F 38.0 °F 29.95 in Calm   12.0 mph 97 % 0.16 in
09:58 38.8 °F 38.0 °F 29.96 in NNE 6.0 mph 14.0 mph 97 % 0.16 in
10:13 38.7 °F 38.0 °F 29.96 in ENE 8.0 mph 13.0 mph 97 % 0.15 in
10:29 38.7 °F 38.0 °F 29.96 in NE 3.0 mph 16.0 mph 97 % 0.12 in
10:44 38.8 °F 38.0 °F 29.96 in North 5.0 mph 14.0 mph 97 % 0.12 in
10:59 38.7 °F 38.0 °F 29.96 in NNE 6.0 mph 17.0 mph 97 % 0.11 in
11:14 38.8 °F 38.0 °F 29.96 in NE 5.0 mph 12.0 mph 97 % 0.10 in
11:29 38.8 °F 38.0 °F 29.96 in ENE 5.0 mph 18.0 mph 97 % 0.10 in
11:44 38.8 °F 38.0 °F 29.96 in NE 3.0 mph 14.0 mph 97 % 0.07 in
11:59 38.9 °F 38.0 °F 29.96 in ENE 6.0 mph 13.0 mph 97 % 0.07 in
12:14 39.1 °F 38.0 °F 29.96 in ENE 5.0 mph 13.0 mph 97 % 0.07 in
12:29 39.4 °F 39.0 °F 29.96 in ENE 4.0 mph 13.0 mph 97 % 0.06 in
12:44 39.4 °F 39.0 °F 29.96 in ENE 9.0 mph 15.0 mph 97 % 0.05 in
12:59 39.6 °F 39.0 °F 29.96 in ENE 1.0 mph 10.0 mph 97 % 0.05 in
13:14 40.1 °F 39.0 °F 29.96 in ENE 3.0 mph 9.0 mph 97 % 0.05 in
13:29 40.2 °F 39.0 °F 29.95 in NE 4.0 mph 9.0 mph 97 % 0.04 in
13:44 40.6 °F 40.0 °F 29.95 in NNE 2.0 mph 12.0 mph 97 % 0.05 in
13:59 41.1 °F 40.0 °F 29.94 in ENE 3.0 mph 11.0 mph 97 % 0.03 in
14:14 41.5 °F 41.0 °F 29.93 in ENE 2.0 mph 10.0 mph 96 % 0.01 in
14:29 41.7 °F 41.0 °F 29.93 in Calm   13.0 mph 96 % 0.01 in
14:44 41.7 °F 40.0 °F 29.93 in NE 3.0 mph 11.0 mph 95 % 0.00 in
14:59 41.8 °F 41.0 °F 29.92 in NE 4.0 mph 11.0 mph 96 % 0.00 in
15:14 41.7 °F 40.0 °F 29.93 in Calm   11.0 mph 95 % 0.00 in
15:30 41.7 °F 40.0 °F 29.92 in ENE 2.0 mph 10.0 mph 95 % 0.00 in
15:45 41.9 °F 40.0 °F 29.92 in East 8.0 mph 8.0 mph 94 % 0.00 in
16:00 41.7 °F 40.0 °F 29.92 in ENE 5.0 mph 10.0 mph 94 % 0.00 in
16:23 41.8 °F 40.0 °F 29.92 in East 1.0 mph 10.0 mph 94 % 0.00 in
16:30 41.8 °F 40.0 °F 29.92 in East 1.0 mph 10.0 mph 94 % 0.00 in
16:45 41.8 °F 40.0 °F 29.92 in East 1.0 mph 9.0 mph 94 % 0.00 in
17:00 41.8 °F 40.0 °F 29.91 in East 2.0 mph 8.0 mph 94 % 0.00 in
17:15 41.9 °F 41.0 °F 29.91 in Calm   10.0 mph 95 % 0.00 in
17:30 42.1 °F 41.0 °F 29.91 in ESE 2.0 mph 8.0 mph 95 % 0.00 in
17:45 42.1 °F 41.0 °F 29.91 in Calm   5.0 mph 95 % 0.00 in
18:00 42.1 °F 41.0 °F 29.90 in NNE 3.0 mph 10.0 mph 95 % 0.00 in
18:15 42.0 °F 41.0 °F 29.90 in ENE 2.0 mph 5.0 mph 96 % 0.00 in
18:30 42.0 °F 41.0 °F 29.90 in ENE 3.0 mph 10.0 mph 96 % 0.00 in
18:45 42.0 °F 41.0 °F 29.90 in NE 3.0 mph 6.0 mph 96 % 0.00 in
19:00 42.0 °F 41.0 °F 29.90 in Calm   9.0 mph 96 % 0.00 in
19:15 41.9 °F 41.0 °F 29.91 in Calm   8.0 mph 96 % 0.00 in
19:30 42.0 °F 41.0 °F 29.91 in ENE 1.0 mph 10.0 mph 96 % 0.00 in
19:45 42.0 °F 41.0 °F 29.92 in Calm   6.0 mph 96 % 0.00 in
20:00 42.1 °F 41.0 °F 29.92 in ENE 4.0 mph 7.0 mph 96 % 0.00 in
20:15 42.1 °F 41.0 °F 29.92 in Calm   5.0 mph 96 % 0.00 in
20:30 42.1 °F 41.0 °F 29.92 in Calm   8.0 mph 96 % 0.00 in
20:45 42.1 °F 41.0 °F 29.93 in Calm   7.0 mph 96 % 0.00 in
21:00 42.1 °F 41.0 °F 29.93 in ENE 4.0 mph 6.0 mph 96 % 0.00 in
21:15 42.1 °F 41.0 °F 29.93 in Calm   6.0 mph 97 % 0.00 in
21:30 42.0 °F 41.0 °F 29.93 in Calm   6.0 mph 97 % 0.00 in
21:45 42.0 °F 41.0 °F 29.93 in NE 1.0 mph 5.0 mph 97 % 0.00 in
22:00 41.9 °F 41.0 °F 29.93 in Calm   6.0 mph 97 % 0.00 in
22:15 41.8 °F 41.0 °F 29.93 in Calm   6.0 mph 97 % 0.00 in
22:30 41.7 °F 41.0 °F 29.93 in Calm   4.0 mph 97 % 0.00 in
22:45 41.7 °F 41.0 °F 29.92 in NNE 5.0 mph 5.0 mph 97 % 0.00 in
23:00 41.6 °F 41.0 °F 29.92 in Calm   4.0 mph 97 % 0.00 in
23:15 41.5 °F 41.0 °F 29.92 in Calm   6.0 mph 97 % 0.00 in
23:30 41.3 °F 41.0 °F 29.92 in Calm   5.0 mph 97 % 0.00 in
23:45 41.1 °F 40.0 °F 29.91 in NE 2.0 mph 6.0 mph 97 % 0.00 in
Des Moines Weather and Climate
Compliments of Weather Underground - 3 mb

Script developed by  Jim McMurry - jmcmurry@mwt.net Adapted for the template by  Wim van der Kuil - Leuven-Template.eu

You find our weather info also at:

Weather Underground

Equipment we use:

Weather-station
Davis VP2 Plus

Weather-program
Davis Weatherlink.Com

Weather-server
iMac (Retina 4K, 21.5-inch, Late 2015)

Provider
Hostmonster.com

Davis VP2 Plus

Davis Weatherlink.Com

iMac (Retina 4K, 21.5-inch, Late 2015)

Hostmonster.com